Location: Observatorio Las Palmas
(29.0667°N, 110.9333°W)
Time: 16:06:09
(UTC-07:00)

Daily predictions for brighter satellites

Satellite Brightness Start Highest point End
(mag) Time Altitude Azimuth Time Altitude Azimuth Time Altitude Azimuth
IUS-17 SRM-1 4.4 19:33:38 10° W 19:36:48 43° S 19:48:11 10° ESE
Cosmos 841 Rocket 3.7 19:43:22 10° NNW 19:48:39 82° WSW 19:53:52 10° S
ALOS 2.7 19:44:59 10° SSE 19:49:25 46° ENE 19:53:53 10° N
ASTRO E2 2.8 19:46:13 10° W 19:50:13 69° SSW 19:54:14 10° ESE
Resurs 01 Rocket 3.0 19:48:23 10° S 19:52:33 41° W 19:56:45 10° NNW
USA 186 2.1 19:51:31 10° SE 19:53:34 27° ENE 19:55:39 10° NNE
Cosmos 1470 3.4 19:49:45 10° NNW 19:53:38 61° W 19:57:32 10° S
Delta 142 3.8 19:49:28 10° W 19:53:54 73° S 19:59:28 10° ESE
XTE 4.3 19:58:02 10° SW 20:00:40 25° S 20:03:11 11° ESE
Tiangong 1 3.2 20:01:45 10° SSE 20:02:22 10° SE 20:02:44 10° SE
Cosmos 2221 2.5 20:00:08 10° N 20:04:24 76° E 20:08:41 10° S
Cosmos 1441 Rocket 4.3 20:03:57 10° SSE 20:07:03 24° E 20:10:08 10° NE
deb Chang Zheng 4 4.2 20:03:16 10° NNE 20:07:13 34° E 20:11:10 10° SSE
Meteor 1-16 Rocket 4.4 20:04:11 10° N 20:10:08 90° W 20:16:00 10° S
Cosmos 1766 Rocket 3.6 20:06:16 10° S 20:10:42 86° W 20:15:07 10° N
Delta 2 Rocket 2.9 20:09:13 10° WSW 20:12:55 84° NNW 20:16:19 10° ENE
Cosmos 1733 4.5 20:09:40 10° NNW 20:13:15 42° W 20:16:51 10° SSW
ATLAS CENTAUR R/B 2.5 20:10:10 10° N 20:14:07 31° ENE 20:17:04 14° ESE
AVUM R/B 4.3 20:24:08 16° ENE 20:24:08 16° ENE 20:24:59 10° NE
Cosmos 2322 Rocket 2.9 20:19:12 10° N 20:24:23 37° ENE 20:28:11 17° SE
Cosmos 1939 Rocket 3.9 20:24:24 17° ESE 20:26:40 29° ENE 20:30:06 10° NNE
Cosmos 1515 Rocket 4.5 20:28:03 10° NNE 20:32:00 31° E 20:34:05 21° SE
SL-16 R/B 2.8 20:28:23 10° N 20:33:45 42° ENE 20:37:16 20° SE
In-Cosmos 22 4.2 20:28:47 10° S 20:34:31 81° E 20:40:18 10° N
Cosmos 1980 Rocket 2.7 20:29:03 10° NNW 20:34:38 60° WSW 20:40:12 10° S
Cosmos 2360 Rocket 4.0 20:31:46 10° NNE 20:34:57 15° ENE 20:37:27 12° E
Cosmos 2266 Rocket 4.4 20:33:10 11° SSE 20:38:53 45° E 20:44:48 10° NNE
FENGYUN 3A 4.4 20:36:00 10° S 20:41:13 51° W 20:46:30 10° NNW
Cosmos 1697 Rocket 4.5 20:36:32 10° NW 20:41:16 28° WSW 20:45:59 10° SSW
Cosmos 540 Rocket 3.8 20:39:45 10° NNW 20:44:52 65° WSW 20:49:22 13° S
Cosmos 1674 3.1 20:44:48 29° SE 20:46:11 41° E 20:49:48 10° NNE
Nimbus 7 Rocket 4.3 20:40:47 10° NNE 20:46:39 77° ESE 20:52:30 10° S
YAOGAN 11 4.4 20:42:48 12° S 20:46:45 62° W 20:51:02 10° NNW
Cosmos 1553 Rocket 4.0 20:40:29 10° N 20:46:53 73° E 20:51:59 16° SSE
USA 229 DEB 3.9 20:40:43 10° SSW 20:47:37 77° WNW 20:54:36 10° NNE
Cosmos 2151 3.8 20:46:46 27° ESE 20:47:39 30° E 20:51:19 10° NNE
USA 229 3.9 20:40:49 10° SSW 20:47:43 77° WNW 20:54:43 10° NNE
Cosmos 332 Rocket 4.0 20:45:46 10° NNW 20:50:35 71° WSW 20:54:07 18° S
Cosmos 1437 Rocket 3.2 20:51:51 10° N 20:55:27 40° E 20:56:06 36° ESE
GPS 2-04 Rocket1 3.0 20:52:19 10° WNW 20:56:40 68° NNE 20:58:33 32° E
Cosmos 1833 4.1 20:50:57 10° SSW 20:56:41 83° ESE 21:02:23 10° NNE
Cosmos 1151 Rocket 3.6 20:57:43 10° NNE 21:01:45 38° E 21:02:24 35° ESE
OAO 2 Rocket 3.6 20:57:02 10° SW 21:02:06 46° SSE 21:04:31 28° E
NOSS 3-1 (A) 3.9 21:07:22 32° ESE 21:07:37 32° ESE 21:12:55 10° NE
Cosmos 1328 4.0 21:09:59 47° E 21:10:02 47° E 21:13:50 10° NNE
H-2A R/B 2.4 21:08:11 27° S 21:10:36 66° WSW 21:15:07 10° NNW
Envisat 2.9 21:10:50 31° S 21:13:19 86° WSW 21:18:25 10° NNW
Nadezhda 2 Rocket 4.5 21:13:26 31° SSE 21:16:23 61° E 21:22:24 10° NNE
Cosmos 2058 3.5 21:19:09 39° ENE 21:19:09 39° ENE 21:22:27 10° NNE
YAOGAN 6 3.2 21:20:33 42° NE 21:20:33 42° NE 21:23:37 10° N
Delta 128 3.7 21:15:58 10° W 21:20:24 52° SSW 21:20:41 51° S
ERS-1 Rocket 4.2 21:19:03 15° SSW 21:22:45 36° W 21:27:23 10° NNW
Cosmos 1437 3.1 21:25:22 62° NNW 21:25:22 62° NNW 21:28:12 10° N
SPOT 5 2.6 21:25:09 51° S 21:26:15 81° WSW 21:30:53 10° NNW
Cosmos 371 Rocket 4.2 21:22:30 10° NNW 21:27:02 43° WSW 21:29:06 27° SSW
ATLAS 2AS CENTAUR R/B 4.4 21:32:38 17° E 21:32:38 17° E 21:35:17 10° ENE
Cosmos 405 3.2 21:26:40 10° N 21:29:54 70° N 21:29:54 70° N
MetOp-A 4.1 21:36:13 50° S 21:37:40 82° WSW 21:43:02 10° NNW
Cosmos 2219 Rocket 4.4 21:36:14 10° NE 21:37:49 11° ENE 21:38:24 11° ENE
ARGOS 3.3 21:37:20 51° E 21:37:58 54° ENE 21:43:12 10° N
H-2A R/B 3.3 21:41:19 27° ENE 21:41:19 27° ENE 21:45:39 10° NNE
SL-08 RB Rocket 4.2 21:46:47 47° NE 21:46:47 47° NE 21:50:32 10° N
SL-24 R/B - RUBIN 2 4.4 21:39:55 10° NNW 21:46:39 86° ENE 21:48:02 58° SSE
Cosmos 2219 3.5 21:43:34 20° SSW 21:47:38 67° WNW 21:53:22 10° NNE
ATLAS CENTAUR R/B 3.6 21:50:17 10° WNW 21:52:49 16° WSW 21:53:26 15° WSW
SPOT 1/Viking Rocket 3.4 21:52:44 77° S 21:53:07 85° WSW 21:58:17 10° NNW
Meteor 1-27 4.3 21:49:19 10° N 21:54:52 59° E 21:54:52 59° E
NOSS 3-1 (C) 3.5 21:50:48 14° SW 21:55:42 70° WNW 22:01:54 10° NNE
Cosmos 1726 4.1 21:55:28 10° N 21:57:09 24° NNE 21:57:09 24° NNE
Cosmos 2322 3.5 21:56:50 10° NNW 22:02:34 86° WSW 22:02:51 81° S
FALCON 9 R/B 4.3 21:31:57 10° W 22:03:07 70° NNW 22:09:35 15° ENE
Cosmos 2237 Rocket 4.4 22:02:28 10° NNE 22:05:00 13° ENE 22:05:04 13° ENE
Cosmos 1680 Rocket 3.5 22:00:03 10° NNW 22:05:12 78° W 22:05:12 78° W
Cosmos 2322 Rocket 4.0 22:03:57 10° NW 22:08:04 21° W 22:10:01 18° SW
Cosmos 923 Rocket 4.4 22:03:32 10° NNW 22:08:33 51° WSW 22:08:44 51° WSW
CZ-3A R/B 3.2 21:49:34 10° W 22:09:31 62° S 22:09:39 62° S
Cosmos 2150 Rocket 4.1 22:11:47 74° W 22:11:53 75° WNW 22:17:21 10° NNE
Cosmos 304 Rocket 4.3 22:07:13 10° NNW 22:11:25 56° WNW 22:11:25 56° WNW
Landsat 7 4.4 22:13:54 53° N 22:13:54 53° N 22:17:36 10° N
NOAA 11 4.2 22:13:06 71° WSW 22:13:08 71° WSW 22:18:35 10° NNW
Cosmos 1898 Rocket 3.6 22:13:30 71° NW 22:13:30 71° NW 22:18:23 10° NNE
SL-16 R/B 4.1 22:13:34 10° WNW 22:17:26 19° W 22:19:09 17° WSW
Cosmos 1633 Rocket 4.1 22:19:20 43° NNW 22:19:20 43° NNW 22:22:29 10° N
Sich 1 4.1 22:19:29 44° NW 22:19:29 44° NW 22:22:50 10° N
Cosmos 2360 Rocket 2.5 22:13:43 10° NNW 22:19:14 57° WSW 22:19:14 57° WSW
DMSP B5D2-2 4.4 22:19:05 10° NNE 22:23:22 61° N 22:23:22 61° N
Terra 2.8 22:30:16 43° N 22:30:16 43° N 22:33:28 10° N
Cosmos 2227 Rocket 3.0 22:39:32 42° NNE 22:39:32 42° NNE 22:43:14 10° NNE
Cosmos 2333 Rocket 3.4 22:45:09 10° N 22:49:11 34° NE 22:49:11 34° NE
SL-16 R/B 4.4 22:53:00 10° NNE 22:55:32 15° NE 22:55:32 15° NE
Nadezhda 1 Rocket 4.3 22:52:06 10° N 22:57:05 61° NNW 22:57:05 61° NNW
COSMOS 2428 3.7 22:56:33 10° NNW 23:00:36 42° WNW 23:00:36 42° WNW
Cosmos 2297 Rocket 3.4 23:07:31 37° NNE 23:07:31 37° NNE 23:10:52 10° NNE
ATLAS 2AS CENTAUR R/B 3.1 23:20:00 65° WNW 23:20:16 65° WNW 23:28:09 10° NNE
H-2A R/B 3.9 23:21:57 24° WNW 23:21:57 24° WNW 23:24:58 10° NW
Cosmos 2219 Rocket 3.4 23:16:41 10° NNW 23:20:07 39° NNW 23:20:07 39° NNW
COSMOS 2455 4.4 23:21:11 10° N 23:25:14 27° NE 23:25:14 27° NE
Cosmos 2237 Rocket 3.7 23:43:51 10° NNW 23:46:53 33° NNW 23:46:53 33° NNW
ATLAS 3B R/B 3.6 23:43:54 10° NNW 23:49:27 39° NE 23:49:27 39° NE
